H1 CPF 2 NER 2024 1 29 9 029 01 glonass139 H2 1808601 9139 43687 2024 1 29 0 0 0 2024 2 1 23 45 0 900 1 1 0 0 0 1 H9 10 0 60338 0.00000 0 9234672.001 -17160163.937 -16447065.730 10 0 60338 900.00000 0 9061595.886 -15006403.612 -18517797.038 10 0 60338 1800.00000 0 9049955.457 -12612923.602 -20228496.596 10 0 60338 2700.00000 0 9227533.470 -10039061.693 -21545893.806 10 0 60338 3600.00000 0 9611073.214 -7349823.111 -22444369.348 10 0 60338 4500.00000 0 10205443.205 -4613386.401 -22906453.907 10 0 60338 5400.00000 0 11003318.263 -1898485.519 -22923167.846 10 0 60338 6300.00000 0 11985390.958 728223.310 -22494195.407 10 0 60338 7200.00000 0 13121105.009 3204700.807 -21627890.136 10 0 60338 8100.00000 0 14369880.251 5475864.873 -20341111.534 10 0 60338 9000.00000 0 15682778.004 7495635.106 -18658896.030 10 0 60338 9900.00000 0 17004537.127 9228597.287 -16613968.645 10 0 60338 10800.00000 0 18275895.262 10651219.452 -14246104.742 10 0 60338 11700.00000 0 19436097.689 11752569.958 -11601354.187 10 0 60338 12600.00000 0 20425488.132 12534508.816 -8731143.068 10 0 60338 13500.00000 0 21188072.279 13011345.774 -5691270.558 10 0 60338 14400.00000 0 21673945.805 13208980.995 -2540820.682 10 0 60338 15300.00000 0 21841484.365 13163566.036 658989.452 10 0 60338 16200.00000 0 21659203.002 12919742.974 3846002.122 10 0 60338 17100.00000 0 21107206.437 12528537.289 6958328.532 10 0 60338 18000.00000 0 20178168.938 12044994.536 9935551.471 10 0 60338 18900.00000 0 18877802.403 11525661.511 12719897.472 10 0 60338 19800.00000 0 17224792.778 11026018.843 15257355.622 10 0 60338 20700.00000 0 15250207.265 10597973.751 17498721.426 10 0 60338 21600.00000 0 12996396.869 10287518.819 19400545.849 10 0 60338 22500.00000 0 10515439.701 10132655.367 20925971.740 10 0 60338 23400.00000 0 7867189.472 10161668.686 22045442.117 10 0 60338 24300.00000 0 5117009.716 10391827.452 22737267.384 10 0 60338 25200.00000 0 2333287.046 10828561.836 22988041.257 10 0 60338 26100.00000 0 -415174.280 11465154.809 22792897.924 10 0 60338 27000.00000 0 -3061769.529 12282959.832 22155605.857 10 0 60338 27900.00000 0 -5544615.045 13252136.186 21088496.557 10 0 60338 28800.00000 0 -7808870.748 14332871.773 19612229.424 10 0 60338 29700.00000 0 -9808768.332 15477042.845 17755396.842 10 0 60338 30600.00000 0 -11509261.941 16630241.907 15553976.433 10 0 60338 31500.00000 0 -12887233.517 17734089.438 13050640.309 10 0 60338 32400.00000 0 -13932203.387 18728732.977 10293933.863 10 0 60338 33300.00000 0 -14646517.078 19555428.968 7337339.269 10 0 60338 34200.00000 0 -15045001.104 20159098.810 4238241.300 10 0 60338 35100.00000 0 -15154102.713 20490751.345 1056815.173 10 0 60338 36000.00000 0 -15010550.245 20509669.161 -2145142.073 10 0 60338 36900.00000 0 -14659591.024 20185265.802 -5305413.775 10 0 60338 37800.00000 0 -14152881.647 19498534.552 -8362575.667 10 0 60338 38700.00000 0 -13546120.288 18443026.612 -11257193.711 10 0 60338 39600.00000 0 -12896521.666 17025316.209 -13932983.793 10 0 60338 40500.00000 0 -12260241.981 15264931.866 -16337910.236 10 0 60338 41400.00000 0 -11689863.231 13193755.514 -18425201.345 10 0 60338 42300.00000 0 -11232043.752 10854913.604 -20154261.857 10 0 60338 43200.00000 0 -10925434.674 8301205.715 -21491464.483 10 0 60338 44100.00000 0 -10798950.626 5593135.526 -22410805.085 10 0 60338 45000.00000 0 -10870467.994 2796625.687 -22894408.891 10 0 60338 45900.00000 0 -11146005.833 -19488.752 -22932878.039 10 0 60338 46800.00000 0 -11619424.180 -2786084.541 -22525473.893 10 0 60338 47700.00000 0 -12272652.652 -5436383.343 -21680130.684 10 0 60338 48600.00000 0 -13076439.789 -7908484.782 -20413300.300 10 0 60338 49500.00000 0 -13991591.763 -10147694.681 -18749631.207 10 0 60338 50400.00000 0 -14970648.263 -12108552.225 -16721487.688 10 0 60338 51300.00000 0 -15959925.016 -13756472.455 -14368318.645 10 0 60338 52200.00000 0 -16901836.745 -15068936.541 -11735888.174 10 0 60338 53100.00000 0 -17737402.498 -16036181.213 -8875382.884 10 0 60338 54000.00000 0 -18408827.428 -16661359.781 -5842413.463 10 0 60338 54900.00000 0 -18862051.791 -16960169.365 -2695930.114 10 0 60338 55800.00000 0 -19049159.249 -16959961.444 502926.626 10 0 60338 56700.00000 0 -18930542.480 -16698374.564 3692016.910 10 0 60338 57600.00000 0 -18476734.376 -16221548.153 6809410.853 10 0 60338 58500.00000 0 -17669827.277 -15581993.941 9794592.072 10 0 60338 59400.00000 0 -16504420.117 -14836215.738 12589631.852 10 0 60338 60300.00000 0 -14988053.321 -14042178.662 15140311.061 10 0 60338 61200.00000 0 -13141112.781 -13256734.972 17397168.109 10 0 60338 62100.00000 0 -10996206.521 -12533115.098 19316453.028 10 0 60338 63000.00000 0 -8597039.553 -11918589.405 20860969.753 10 0 60338 63900.00000 0 -5996833.214 -11452398.757 22000790.964 10 0 60338 64800.00000 0 -3256354.049 -11164040.418 22713832.463 10 0 60338 65700.00000 0 -441633.210 -11071980.857 22986276.703 10 0 60338 66600.00000 0 2378529.958 -11182849.080 22812837.854 10 0 60338 67500.00000 0 5135177.743 -11491144.119 22196863.694 10 0 60338 68400.00000 0 7761810.310 -11979468.911 21150272.447 10 0 60338 69300.00000 0 10196901.037 -12619280.950 19693325.606 10 0 60338 70200.00000 0 12386207.701 -13372128.581 17854240.695 10 0 60338 71100.00000 0 14284784.577 -14191321.577 15668650.767 10 0 60338 72000.00000 0 15858612.597 -15023966.353 13178920.331 10 0 60338 72900.00000 0 17085780.392 -15813280.773 10433330.142 10 0 60338 73800.00000 0 17957167.532 -16501091.510 7485145.863 10 0 60338 74700.00000 0 18476601.825 -17030408.882 4391588.160 10 0 60338 75600.00000 0 18660484.525 -17347970.515 1212723.800 10 0 60338 76500.00000 0 18536899.547 -17406646.085 -1989700.779 10 0 60338 77400.00000 0 18144244.555 -17167600.923 -5153460.605 10 0 60338 78300.00000 0 17529441.989 -16602126.213 -8217064.309 10 0 60338 79200.00000 0 16745805.932 -15693057.368 -11120953.212 10 0 60338 80100.00000 0 15850655.310 -14435719.477 -13808663.445 10 0 60338 81000.00000 0 14902774.692 -12838358.625 -16227927.966 10 0 60338 81900.00000 0 13959830.334 -10922039.583 -18331696.612 10 0 60338 82800.00000 0 13075850.988 -8720012.868 -20079053.999 10 0 60338 83700.00000 0 12298880.077 -6276576.511 -21436017.288 10 0 60338 84600.00000 0 11668898.471 -3645479.101 -22376198.290 10 0 60338 85500.00000 0 11216105.533 -887929.895 -22881317.144 10 0 60339 0.00000 0 10959630.884 1929701.542 -22941557.750 10 0 60339 900.00000 0 10906730.913 4738402.552 -22555758.191 10 0 60339 1800.00000 0 11052504.026 7469143.488 -21731432.586 10 0 60339 2700.00000 0 11380135.952 10055509.035 -20484624.114 10 0 60339 3600.00000 0 11861664.894 12436222.085 -18839591.880 10 0 60339 4500.00000 0 12459233.882 14557457.158 -16828337.739 10 0 60339 5400.00000 0 13126777.236 16374847.433 -14489982.187 10 0 60339 6300.00000 0 13812069.733 17855102.450 -11870001.325 10 0 60339 7200.00000 0 14459051.607 18977169.768 -9019339.818 10 0 60339 8100.00000 0 15010330.830 19732893.048 -5993417.168 10 0 60339 9000.00000 0 15409756.554 20127140.133 -2851046.882 10 0 60339 9900.00000 0 15604954.494 20177396.995 346710.062 10 0 60339 10800.00000 0 15549716.690 19912845.945 3537734.717 10 0 60339 11700.00000 0 15206144.242 19372968.139 6660059.062 10 0 60339 12600.00000 0 14546452.087 18605730.434 9653070.346 10 0 60339 13500.00000 0 13554359.315 17665433.985 12458687.204 10 0 60339 14400.00000 0 12226005.969 16610315.962 15022484.614 10 0 60339 15300.00000 0 10570357.317 15500005.920 17294745.932 10 0 60339 16200.00000 0 8609078.102 14392944.065 19231421.997 10 0 60339 17100.00000 0 6375881.329 13343869.870 20794979.241 10 0 60339 18000.00000 0 3915378.087 12401486.253 21955121.094 10 0 60339 18900.00000 0 1281475.446 11606396.802 22689369.491 10 0 60339 19800.00000 0 -1464611.938 10989401.934 22983495.962 10 0 60339 20700.00000 0 -4256654.983 10570224.743 22831794.584 10 0 60339 21600.00000 0 -7025914.151 10356719.341 22237191.921 10 0 60339 22500.00000 0 -9703751.624 10344594.390 21211191.921 10 0 60339 23400.00000 0 -12224244.488 10517663.186 19773656.703 10 0 60339 24300.00000 0 -14526691.690 10848609.687 17952427.013 10 0 60339 25200.00000 0 -16557911.615 11300238.525 15782789.020 10 0 60339 26100.00000 0 -18274235.592 11827156.658 13306797.011 10 0 60339 27000.00000 0 -19643114.943 12377816.267 10572464.262 10 0 60339 27900.00000 0 -20644275.026 12896833.095 7632836.984 10 0 60339 28800.00000 0 -21270368.346 13327482.616 4544968.770 10 0 60339 29700.00000 0 -21527099.641 13614268.582 1368815.034 10 0 60339 30600.00000 0 -21432817.882 13705455.169 -1833931.195 10 0 60339 31500.00000 0 -21017592.524 13555455.057 -5001039.322 10 0 60339 32400.00000 0 -20321813.120 13126971.684 -8070953.413 10 0 60339 33300.00000 0 -19394371.560 12392804.049 -10983992.532 10 0 60339 34200.00000 0 -18290503.904 11337236.560 -13683515.243 10 0 60339 35100.00000 0 -17069383.169 9956953.935 -16117025.093 10 0 60339 36000.00000 0 -15791564.939 8261441.164 -18237195.139 10 0 60339 36900.00000 0 -14516393.785 6272850.271 -20002791.245 10 0 60339 37800.00000 0 -13299480.029 4025338.142 -21379476.047 10 0 60339 38700.00000 0 -12190353.182 1563901.839 -22340477.978 10 0 60339 39600.00000 0 -11230390.845 -1057240.967 -22867112.394 10 0 60339 40500.00000 0 -10451109.994 -3776659.815 -22949144.870 10 0 60339 41400.00000 0 -9872892.225 -6528024.703 -22584989.776 10 0 60339 42300.00000 0 -9504196.124 -9242629.029 -21781740.401 10 0 60339 43200.00000 0 -9341289.397 -11852017.877 -20555030.103 10 0 60339 44100.00000 0 -9368511.425 -14290612.744 -18928727.183 10 0 60339 45000.00000 0 -9559054.594 -16498223.914 -16934469.343 10 0 60339 45900.00000 0 -9876230.847 -18422346.313 -14611046.682 10 0 60339 46800.00000 0 -10275169.407 -20020143.645 -12003645.137 10 0 60339 47700.00000 0 -10704873.399 -21260038.561 -9162965.117 10 0 60339 48600.00000 0 -11110547.864 -22122843.137 -6144232.550 10 0 60339 49500.00000 0 -11436100.155 -22602383.171 -3006121.803 10 0 60339 50400.00000 0 -11626706.383 -22705591.102 190388.167 10 0 60339 51300.00000 0 -11631334.782 -22452064.757 3383201.788 10 0 60339 52200.00000 0 -11405118.759 -21873111.566 6510315.400 10 0 60339 53100.00000 0 -10911478.795 -21010319.547 9511022.382 10 0 60339 54000.00000 0 -10123903.120 -19913716.179 12327091.189 10 0 60339 54900.00000 0 -9027311.551 -18639593.404 14903893.304 10 0 60339 55800.00000 0 -7618944.587 -17248090.803 17191459.289 10 0 60339 56700.00000 0 -5908739.787 -15800638.786 19145442.819 10 0 60339 57600.00000 0 -3919178.975 -14357369.111 20727974.573 10 0 60339 58500.00000 0 -1684611.879 -12974601.050 21908390.123 10 0 60339 59400.00000 0 749916.504 -11702507.980 22663818.524 10 0 60339 60300.00000 0 3330287.028 -10583061.343 22979620.962 10 0 60339 61200.00000 0 5995309.727 -9648337.194 22849671.587 10 0 60339 62100.00000 0 8679027.380 -8919255.301 22276475.498 10 0 60339 63000.00000 0 11313224.963 -8404802.763 21271121.749 10 0 60339 63900.00000 0 13830042.065 -8101773.989 19853072.109 10 0 60339 64800.00000 0 16164580.936 -7995037.463 18049789.237 10 0 60339 65700.00000 0 18257402.863 -8058317.800 15896210.796 10 0 60339 66600.00000 0 20056809.778 -8255460.161 13434078.910 10 0 60339 67500.00000 0 21520816.686 -8542123.842 10711137.120 10 0 60339 68400.00000 0 22618733.013 -8867833.765 7780209.629 10 0 60339 69300.00000 0 23332286.956 -9178303.371 4698180.123 10 0 60339 70200.00000 0 23656245.838 -9417930.714 1524889.603 10 0 60339 71100.00000 0 23598506.477 -9532361.988 -1678025.505 10 0 60339 72000.00000 0 23179651.696 -9471013.537 -4848332.213 10 0 60339 72900.00000 0 22431991.667 -9189444.927 -7924413.166 10 0 60339 73800.00000 0 21398130.477 -8651481.690 -10846468.132 10 0 60339 74700.00000 0 20129118.404 -7830996.862 -13557680.798 10 0 60339 75600.00000 0 18682267.920 -6713274.686 -16005327.673 10 0 60339 76500.00000 0 17118725.589 -5295897.584 -18141807.052 10 0 60339 77400.00000 0 15500902.289 -3589117.531 -19925567.706 10 0 60339 78300.00000 0 13889870.024 -1615694.818 -21321919.059 10 0 60339 79200.00000 0 12342834.781 589790.436 -22303707.103 10 0 60339 80100.00000 0 10910791.574 2982126.438 -22851842.990 10 0 60339 81000.00000 0 9636459.845 5507108.993 -22955674.191 10 0 60339 81900.00000 0 8552585.492 8103564.444 -22613191.214 10 0 60339 82800.00000 0 7680680.221 10705672.709 -21831065.954 10 0 60339 83700.00000 0 7030250.407 13245494.298 -20624521.057 10 0 60339 84600.00000 0 6598547.044 15655596.568 -19017032.781 10 0 60339 85500.00000 0 6370846.388 17871670.207 -17039873.086 10 0 60340 0.00000 0 6321248.531 19835027.091 -14731499.990 10 0 60340 900.00000 0 6413959.335 21494876.674 -12136806.625 10 0 60340 1800.00000 0 6605000.718 22810283.621 -9306246.810 10 0 60340 2700.00000 0 6844276.121 23751728.796 -6294850.107 10 0 60340 3600.00000 0 7077903.107 24302206.115 -3161148.745 10 0 60340 4500.00000 0 7250713.563 24457811.072 33963.493 10 0 60340 5400.00000 0 7308815.019 24227796.846 3228417.617 10 0 60340 6300.00000 0 7202104.052 23634096.514 6360177.496 10 0 60340 7200.00000 0 6886624.851 22710332.379 9368445.679 10 0 60340 8100.00000 0 6326672.742 21500354.871 12194843.274 10 0 60340 9000.00000 0 5496553.338 20056373.218 14784540.832 10 0 60340 9900.00000 0 4381922.657 18436756.918 17087318.383 10 0 60340 10800.00000 0 2980651.281 16703600.593 19058534.378 10 0 60340 11700.00000 0 1303175.596 14920154.357 20659985.330 10 0 60340 12600.00000 0 -627679.322 13148227.014 21860640.187 10 0 60340 13500.00000 0 -2777398.674 11445670.218 22637235.974 10 0 60340 14400.00000 0 -5100970.645 9864047.936 22974723.975 10 0 60340 15300.00000 0 -7544524.295 8446587.663 22866558.396 10 0 60340 16200.00000 0 -10047345.737 7226497.896 22314822.393 10 0 60340 17100.00000 0 -12544190.126 6225721.105 21330189.142 10 0 60340 18000.00000 0 -14967794.598 5454173.372 19931718.571 10 0 60340 18900.00000 0 -17251488.919 4909501.667 18146493.276 10 0 60340 19800.00000 0 -19331796.333 4577368.270 16009099.992 10 0 60340 20700.00000 0 -21150917.112 4432249.971 13560965.886 10 0 60340 21600.00000 0 -22658991.899 4438718.132 10849561.708 10 0 60340 22500.00000 0 -23816050.706 4553145.567 7927486.428 10 0 60340 23400.00000 0 -24593566.146 4725768.110 4851450.554 10 0 60340 24300.00000 0 -24975545.817 4903013.656 1681177.445 10 0 60340 25200.00000 0 -24959117.779 5029999.923 -1521756.193 10 0 60340 26100.00000 0 -24554584.301 5053094.810 -4695117.932 10 0 60340 27000.00000 0 -23784941.336 4922430.324 -7777231.771 10 0 60340 27900.00000 0 -22684883.747 4594262.811 -10708180.744 10 0 60340 28800.00000 0 -21299337.991 4033078.558 -13430975.998 10 0 60340 29700.00000 0 -19681583.993 3213354.554 -15892669.063 10 0 60340 30600.00000 0 -17891045.212 2120898.701 -18045385.227 10 0 60340 31500.00000 0 -15990839.886 753711.584 -19847257.539 10 0 60340 32400.00000 0 -14045196.358 -877667.895 -21263243.163 10 0 60340 33300.00000 0 -12116840.957 -2750348.933 -22265806.155 10 0 60340 34200.00000 0 -10264467.830 -4829800.760 -22835453.505 10 0 60340 35100.00000 0 -8540396.521 -7071061.487 -22961114.184 10 0 60340 36000.00000 0 -6988514.917 -9420394.383 -22640354.011 10 0 60340 36900.00000 0 -5642593.151 -11817323.268 -21879422.296 10 0 60340 37800.00000 0 -4525038.232 -14196962.832 -20693129.438 10 0 60340 38700.00000 0 -3646140.690 -16492547.232 -19104557.837 10 0 60340 39600.00000 0 -3003843.726 -18638051.871 -17144611.669 10 0 60340 40500.00000 0 -2584043.424 -20570799.272 -14851414.207 10 0 60340 41400.00000 0 -2361406.194 -22233940.436 -12269564.271 10 0 60340 42300.00000 0 -2300667.782 -23578708.151 -9449266.306 10 0 60340 43200.00000 0 -2358357.916 -24566348.190 -6445351.086 10 0 60340 44100.00000 0 -2484876.628 -25169647.783 -3316206.302 10 0 60340 45000.00000 0 -2626833.443 -25373997.630 -122638.199 10 0 60340 45900.00000 0 -2729549.573 -25177943.393 3073313.136 10 0 60340 46800.00000 0 -2739616.400 -24593204.088 6209581.377 10 0 60340 47700.00000 0 -2607401.317 -23644157.256 9225280.478 10 0 60340 48600.00000 0 -2289394.324 -22366813.222 12061886.373 10 0 60340 49500.00000 0 -1750295.768 -20807322.112 14664370.780 10 0 60340 50400.00000 0 -964756.611 -19020076.766 16982265.153 10 0 60340 51300.00000 0 81302.510 -17065491.340 18970634.484 10 0 60340 52200.00000 0 1389849.458 -15007548.664 20590942.644 10 0 60340 53100.00000 0 2950411.921 -12911218.668 21811793.163 10 0 60340 54000.00000 0 4740276.443 -10839855.212 22609531.911 10 0 60340 54900.00000 0 6725207.744 -8852679.149 22968700.768 10 0 60340 55800.00000 0 8860659.355 -7002451.630 22882334.138 10 0 60340 56700.00000 0 11093426.328 -5333433.516 22352093.010 10 0 60340 57600.00000 0 13363672.440 -3879714.780 21388234.120 10 0 60340 58500.00000 0 15607248.778 -2663982.463 20009414.681 10 0 60340 59400.00000 0 17758208.399 -1696777.537 18242336.057 10 0 60340 60300.00000 0 19751413.421 -976270.815 16121232.599 10 0 60340 61200.00000 0 21525126.709 -488566.573 13687214.794 10 0 60340 62100.00000 0 23023480.633 -208520.531 10987478.587 10 0 60340 63000.00000 0 24198720.072 -101037.377 8074395.436 10 0 60340 63900.00000 0 25013125.847 -122792.843 5004500.123 10 0 60340 64800.00000 0 25440537.814 -224307.365 1837395.593 10 0 60340 65700.00000 0 25467413.379 -352283.346 -1365404.106 10 0 60340 66600.00000 0 25093376.448 -452106.742 -4541670.127 10 0 60340 67500.00000 0 24331233.291 -470406.476 -7629670.815 10 0 60340 68400.00000 0 23206454.122 -357562.585 -10569375.340 10 0 60340 69300.00000 0 21756141.806 -70056.008 -13303624.961 10 0 60340 70200.00000 0 20027530.739 427440.454 -15779248.605 10 0 60340 71100.00000 0 18076078.752 1160319.567 -17948100.611 10 0 60340 72000.00000 0 15963232.056 2142720.291 -19768000.067 10 0 60340 72900.00000 0 13753956.858 3376688.518 -21203553.320 10 0 60340 73800.00000 0 11514140.990 4851854.518 -22226843.652 10 0 60340 74700.00000 0 9307974.195 6545641.895 -22817974.762 10 0 60340 75600.00000 0 7195416.342 8424000.432 -22965457.685 10 0 60340 76500.00000 0 5229859.000 10442633.194 -22666433.793 10 0 60340 77400.00000 0 3456077.509 12548667.433 -21926729.702 10 0 60340 78300.00000 0 1908558.366 14682700.178 -20760743.080 10 0 60340 79200.00000 0 610270.881 16781133.648 -19191161.590 10 0 60340 80100.00000 0 -428066.581 18778703.255 -17248520.359 10 0 60340 81000.00000 0 -1208196.288 20611092.846 -14970606.470 10 0 60340 81900.00000 0 -1743999.335 22217527.943 -12401721.982 10 0 60340 82800.00000 0 -2060657.220 23543238.497 -9591819.784 10 0 60340 83700.00000 0 -2193333.535 24541688.043 -6595529.185 10 0 60340 84600.00000 0 -2185432.699 25176475.827 -3471090.407 10 0 60340 85500.00000 0 -2086510.511 25422832.203 -279219.053 10 0 60341 0.00000 0 -1949926.017 25268644.727 2918076.613 10 0 60341 900.00000 0 -1830334.907 24714971.978 6058703.866 10 0 60341 1800.00000 0 -1781131.522 23776024.216 9081690.924 10 0 60341 2700.00000 0 -1851948.087 22478611.805 11928371.552 10 0 60341 3600.00000 0 -2086317.585 20861085.092 14543521.425 10 0 60341 4500.00000 0 -2519599.325 18971810.523 16876425.958 10 0 60341 5400.00000 0 -3177255.037 16867247.014 18881858.939 10 0 60341 6300.00000 0 -4073548.451 14609703.011 20520953.532 10 0 60341 7200.00000 0 -5210723.426 12264867.717 21761949.450 10 0 60341 8100.00000 0 -6578695.646 9899218.960 22580802.629 10 0 60341 9000.00000 0 -8155271.487 7577414.948 22961646.364 10 0 60341 9900.00000 0 -9906885.765 5359777.549 22897095.624 10 0 60341 10800.00000 0 -11789828.567 3299970.716 22388389.102 10 0 60341 11700.00000 0 -13751911.118 1442969.401 21445366.448 10 0 60341 12600.00000 0 -15734502.411 -176597.688 20086280.973 10 0 60341 13500.00000 0 -17674852.822 -1535663.647 18337451.078 10 0 60341 14400.00000 0 -19508608.902 -2623447.619 16232756.506 10 0 60341 15300.00000 0 -21172415.218 -3441658.398 13812988.380 10 0 60341 16200.00000 0 -22606495.174 -4004169.647 11125064.817 10 0 60341 17100.00000 0 -23757103.248 -4336181.015 8221126.460 10 0 60341 18000.00000 0 -24578745.911 -4472900.921 5157528.931 10 0 60341 18900.00000 0 -25036077.919 -4457806.977 1993751.278 10 0 60341 19800.00000 0 -25105393.868 -4340557.877 -1208758.552 10 0 60341 20700.00000 0 -24775651.693 -4174645.496 -4387778.625 10 0 60341 21600.00000 0 -24048984.362 -4014887.058 -7481524.808 10 0 60341 22500.00000 0 -22940677.463 -3914864.208 -10429855.381 10 0 60341 23400.00000 0 -21478612.949 -3924418.179 -13175444.455 10 0 60341 24300.00000 0 -19702201.803 -4087307.955 -15664900.814 10 0 60341 25200.00000 0 -17660849.936 -4439131.481 -17849809.958 10 0 60341 26100.00000 0 -15412021.341 -5005598.796 -19687678.701 10 0 60341 27000.00000 0 -13018979.347 -5801231.046 -21142763.793 10 0 60341 27900.00000 0 -10548300.275 -6828541.315 -22186768.407 10 0 60341 28800.00000 0 -8067263.209 -8077732.797 -22799393.065 10 0 60341 29700.00000 0 -5641224.580 -9526928.009 -22968730.428 10 0 60341 30600.00000 0 -3331086.707 -11142920.382 -22691496.482 10 0 60341 31500.00000 0 -1190965.396 -12882417.529 -21973093.749 10 0 60341 32400.00000 0 733846.849 -14693724.811 -20827505.397 10 0 60341 33300.00000 0 2408537.886 -16518799.281 -19277022.280 10 0 60341 34200.00000 0 3809985.083 -18295588.373 -17351808.152 10 0 60341 35100.00000 0 4927467.256 -19960555.647 -15089311.419 10 0 60341 36000.00000 0 5762850.899 -21451287.894 -12533534.756 10 0 60341 36900.00000 0 6330244.381 -22709074.256 -9734176.792 10 0 60341 37800.00000 0 6655136.100 -23681349.074 -6745662.642 10 0 60341 38700.00000 0 6773054.416 -24323895.803 -3626082.332 10 0 60341 39600.00000 0 6727807.266 -24602719.268 -436058.146 10 0 60341 40500.00000 0 6569377.136 -24495507.542 2762436.651 10 0 60341 41400.00000 0 6351561.501 -23992621.986 5907284.277 10 0 60341 42300.00000 0 6129459.497 -23097573.959 8937430.151 10 0 60341 43200.00000 0 5956911.884 -21826968.316 11794068.065 10 0 60341 44100.00000 0 5884003.078 -20209916.222 14421779.651 10 0 60341 45000.00000 0 5954731.187 -18286942.067 16769606.059 10 0 60341 45900.00000 0 6204944.607 -16108430.291 18792031.370 10 0 60341 46800.00000 0 6660632.326 -13732676.918 20449859.230 10 0 60341 47700.00000 0 7336640.048 -11223626.864 21710966.388 10 0 60341 48600.00000 0 8235866.323 -8648390.787 22550919.345 10 0 60341 49500.00000 0 9348972.806 -6074644.064 22953442.952 10 0 60341 50400.00000 0 10654621.291 -3568015.129 22910732.534 10 0 60341 51300.00000 0 12120228.383 -1189570.571 22423603.969 10 0 60341 52200.00000 0 13703207.131 1006499.767 21501478.998 10 0 60341 53100.00000 0 15352644.772 2974902.700 20162205.946 10 0 60341 54000.00000 0 17011347.548 4680883.853 18431718.948 10 0 60341 54900.00000 0 18618168.166 6101424.862 16343541.604 10 0 60341 55800.00000 0 20110519.473 7225946.643 13938143.951 10 0 60341 56700.00000 0 21426969.793 8056490.281 11262164.334 10 0 60341 57600.00000 0 22509811.652 8607368.689 8367510.460 10 0 60341 58500.00000 0 23307496.186 8904304.284 5310356.461 10 0 60341 59400.00000 0 23776830.849 8983089.493 2150054.988 10 0 60341 60300.00000 0 23884847.547 8887827.036 -1052014.732 10 0 60341 61200.00000 0 23610261.891 8668824.764 -4233640.364 10 0 60341 62100.00000 0 22944461.309 8380234.561 -7332987.958 10 0 60341 63000.00000 0 21891979.453 8077535.777 -10289807.479 10 0 60341 63900.00000 0 20470436.001 7814970.386 -13046608.281 10 0 60341 64800.00000 0 18709943.463 7643039.122 -15549781.163 10 0 60341 65700.00000 0 16652005.099 7606165.333 -17750644.701 10 0 60341 66600.00000 0 14347949.508 7740626.152 -19606395.099 10 0 60341 67500.00000 0 11856966.903 8072839.192 -21080940.925 10 0 60341 68400.00000 0 9243828.733 8618077.895 -22145606.461 10 0 60341 69300.00000 0 6576385.546 9379670.488 -22779690.043 10 0 60341 70200.00000 0 3922947.091 10348717.023 -22970866.719 10 0 60341 71100.00000 0 1349653.419 11504337.123 -22715427.576 10 0 60341 72000.00000 0 -1082053.937 12814438.681 -22018351.217 10 0 60341 72900.00000 0 -3317756.032 14236975.773 -20893206.110 10 0 60341 73800.00000 0 -5312079.768 15721643.476 -19361885.691 10 0 60341 74700.00000 0 -7030336.870 17211938.791 -17454181.322 10 0 60341 75600.00000 0 -8449711.299 18647501.362 -15207201.297 10 0 60341 76500.00000 0 -9559946.718 19966635.799 -12664647.094 10 0 60341 77400.00000 0 -10363506.570 21108909.582 -9875960.940 10 0 60341 78300.00000 0 -10875201.573 22017717.179 -6895361.326 10 0 60341 79200.00000 0 -11121301.787 22642702.338 -3780785.437 10 0 60341 80100.00000 0 -11138172.147 22941936.364 -592759.422 10 0 60341 81000.00000 0 -10970490.436 22883760.460 2606781.077 10 0 60341 81900.00000 0 -10669124.239 22448214.415 5755696.764 10 0 60341 82800.00000 0 -10288757.648 21627991.369 8792852.931 10 0 60341 83700.00000 0 -9885368.973 20428878.436 11659306.298 10 0 60341 84600.00000 0 -9513666.623 18869664.597 14299447.259 10 0 60341 85500.00000 0 -9224591.916 16981519.684 16662075.343 99